Time,TemperatureF,DewpointF,PressureIn,WindDirection,WindDirectionDegrees,WindSpeedMPH,WindSpeedGustMPH,Humidity,HourlyPrecipIn,Conditions,Clouds,dailyrainin,SoftwareType,DateUTC
2013-06-17 00:01:00,76.1,68.0,30.08,South,181,1.9,5.8,76,0.00,CLR,,0.00,WeatherDisplay:10.37,2013-06-17 04:01:00,
2013-06-17 00:06:00,76.0,67.9,30.08,SW,223,4.6,6.0,76,0.00,CLR,,0.00,WeatherDisplay:10.37,2013-06-17 04:06:00,
2013-06-17 00:08:00,76.0,67.9,30.08,South,187,4.3,5.8,76,0.00,CLR,,0.00,WeatherDisplay:10.37,2013-06-17 04:08:00,
2013-06-17 00:13:00,76.0,67.9,30.08,South,176,5.8,9.2,76,0.00,CLR,,0.00,WeatherDisplay:10.37,2013-06-17 04:13:00,
2013-06-17 00:19:00,76.0,67.9,30.08,SSW,198,3.3,5.0,76,0.00,CLR,,0.00,WeatherDisplay:10.37,2013-06-17 04:19:00,
2013-06-17 00:24:00,76.1,68.0,30.08,SSE,163,3.3,6.9,76,0.00,CLR,,0.00,WeatherDisplay:10.37,2013-06-17 04:24:00,
2013-06-17 00:29:00,76.1,68.0,30.08,SSW,212,3.3,4.6,76,0.00,CLR,,0.00,WeatherDisplay:10.37,2013-06-17 04:29:00,
2013-06-17 00:34:00,76.1,68.0,30.08,SW,219,3.7,9.2,76,0.00,CLR,,0.00,WeatherDisplay:10.37,2013-06-17 04:34:00,
2013-06-17 00:40:00,76.0,67.9,30.08,SSW,197,5.0,12.0,76,0.00,CLR,,0.00,WeatherDisplay:10.37,2013-06-17 04:40:00,
2013-06-17 00:45:00,76.0,68.3,30.08,SSW,200,3.0,10.0,77,0.00,CLR,,0.00,WeatherDisplay:10.37,2013-06-17 04:45:00,
2013-06-17 00:50:00,76.0,68.3,30.08,SSW,192,5.0,10.0,77,0.00,CLR,,0.00,WeatherDisplay:10.37,2013-06-17 04:50:00,
2013-06-17 00:55:00,76.1,68.4,30.08,SSW,207,5.0,14.0,77,0.00,CLR,,0.00,WeatherDisplay:10.37,2013-06-17 04:55:00,
2013-06-17 01:00:00,76.1,68.7,30.08,SW,221,3.0,13.0,78,0.00,CLR,,0.00,WeatherDisplay:10.37,2013-06-17 05:00:00,
2013-06-17 01:05:00,76.0,68.6,30.08,SW,214,3.0,10.0,78,0.00,CLR,,0.00,WeatherDisplay:10.37,2013-06-17 05:05:00,
2013-06-17 01:10:00,75.9,68.6,30.08,SSW,204,2.0,7.0,78,0.00,CLR,,0.00,WeatherDisplay:10.37,2013-06-17 05:10:00,
2013-06-17 01:15:00,75.9,68.5,30.08,SSW,203,5.0,12.0,78,0.00,CLR,,0.00,WeatherDisplay:10.37,2013-06-17 05:15:00,
2013-06-17 01:20:00,75.9,68.5,30.08,SSW,207,5.0,9.0,78,0.00,CLR,,0.00,WeatherDisplay:10.37,2013-06-17 05:20:00,
2013-06-17 01:25:00,75.9,68.9,30.08,SSW,213,3.7,7.0,79,0.00,CLR,,0.00,WeatherDisplay:10.37,2013-06-17 05:25:00,
2013-06-17 01:30:00,75.8,68.8,30.08,SSW,200,3.5,8.1,79,0.00,CLR,,0.00,WeatherDisplay:10.37,2013-06-17 05:30:00,
2013-06-17 01:35:00,75.8,68.8,30.08,South,187,2.2,6.9,79,0.00,CLR,,0.00,WeatherDisplay:10.37,2013-06-17 05:35:00,
2013-06-17 01:40:00,75.8,68.4,30.08,SW,228,3.5,6.9,78,0.00,CLR,,0.00,WeatherDisplay:10.37,2013-06-17 05:40:00,
2013-06-17 01:46:00,75.8,68.1,30.08,SSW,201,4.5,9.2,77,0.00,CLR,,0.00,WeatherDisplay:10.37,2013-06-17 05:46:00,
2013-06-17 01:51:00,75.9,68.2,30.08,SSW,192,4.6,8.1,77,0.00,CLR,,0.00,WeatherDisplay:10.37,2013-06-17 05:51:00,
2013-06-17 01:56:00,75.9,68.2,30.08,SSW,192,3.6,4.0,77,0.00,CLR,,0.00,WeatherDisplay:10.37,2013-06-17 05:56:00,
2013-06-17 02:01:00,75.9,67.8,30.08,South,184,2.1,4.6,76,0.00,CLR,,0.00,WeatherDisplay:10.37,2013-06-17 06:01:00,
2013-06-17 02:06:00,75.9,68.2,30.08,SE,136,4.6,10.4,77,0.00,CLR,,0.00,WeatherDisplay:10.37,2013-06-17 06:06:00,
2013-06-17 02:11:00,75.9,68.2,30.07,SW,218,4.2,10.4,77,0.00,CLR,,0.00,WeatherDisplay:10.37,2013-06-17 06:11:00,
2013-06-17 02:17:00,75.9,67.8,30.07,SSW,202,2.6,8.1,76,0.00,CLR,,0.00,WeatherDisplay:10.37,2013-06-17 06:17:00,
2013-06-17 02:22:00,75.9,68.2,30.07,SE,128,2.4,8.1,77,0.00,CLR,,0.00,WeatherDisplay:10.37,2013-06-17 06:22:00,
2013-06-17 02:27:00,75.9,68.2,30.07,SW,216,2.4,8.0,77,0.00,CLR,,0.00,WeatherDisplay:10.37,2013-06-17 06:27:00,
2013-06-17 02:32:00,75.8,68.4,30.07,WSW,244,4.8,4.8,78,0.00,CLR,,0.00,WeatherDisplay:10.37,2013-06-17 06:32:00,
2013-06-17 02:38:00,75.8,68.4,30.07,SSW,197,2.5,3.5,78,0.00,CLR,,0.00,WeatherDisplay:10.37,2013-06-17 06:38:00,
2013-06-17 02:43:00,75.8,68.4,30.07,South,189,3.6,9.2,78,0.00,CLR,,0.00,WeatherDisplay:10.37,2013-06-17 06:43:00,
2013-06-17 02:48:00,75.7,68.7,30.07,SSW,211,1.8,3.5,79,0.00,CLR,,0.00,WeatherDisplay:10.37,2013-06-17 06:48:00,
2013-06-17 02:53:00,75.7,68.7,30.07,SSW,197,3.1,5.8,79,0.00,CLR,,0.00,WeatherDisplay:10.37,2013-06-17 06:53:00,
2013-06-17 02:58:00,75.7,68.7,30.07,SSW,195,2.7,8.1,79,0.00,CLR,,0.00,WeatherDisplay:10.37,2013-06-17 06:58:00,
2013-06-17 03:04:00,75.6,68.6,30.07,SSW,207,1.7,5.8,79,0.00,CLR,,0.00,WeatherDisplay:10.37,2013-06-17 07:04:00,
2013-06-17 03:09:00,75.6,69.0,30.07,SSW,193,1.5,3.5,80,0.00,CLR,,0.00,WeatherDisplay:10.37,2013-06-17 07:09:00,
2013-06-17 03:14:00,75.5,68.9,30.07,South,190,0.9,3.5,80,0.00,CLR,,0.00,WeatherDisplay:10.37,2013-06-17 07:14:00,
2013-06-17 03:19:00,75.4,68.8,30.07,SSW,207,3.2,3.5,80,0.00,CLR,,0.00,WeatherDisplay:10.37,2013-06-17 07:19:00,
2013-06-17 03:24:00,75.4,68.8,30.07,SSE,167,2.9,4.6,80,0.00,CLR,,0.00,WeatherDisplay:10.37,2013-06-17 07:24:00,
2013-06-17 03:30:00,75.4,69.2,30.07,South,190,1.0,10.0,81,0.00,CLR,,0.00,WeatherDisplay:10.37,2013-06-17 07:30:00,
2013-06-17 03:35:00,75.3,69.1,30.07,South,186,2.0,10.0,81,0.00,CLR,,0.00,WeatherDisplay:10.37,2013-06-17 07:35:00,
2013-06-17 03:40:00,75.3,68.7,30.07,South,188,2.0,7.0,80,0.00,CLR,,0.00,WeatherDisplay:10.37,2013-06-17 07:40:00,
2013-06-17 03:45:00,75.2,68.6,30.06,South,190,1.7,3.5,80,0.00,CLR,,0.00,WeatherDisplay:10.37,2013-06-17 07:45:00,
2013-06-17 03:50:00,75.2,69.0,30.07,SE,145,1.5,3.5,81,0.00,CLR,,0.00,WeatherDisplay:10.37,2013-06-17 07:50:00,
2013-06-17 03:56:00,75.1,68.9,30.07,SSW,194,1.6,4.6,81,0.00,CLR,,0.00,WeatherDisplay:10.37,2013-06-17 07:56:00,
2013-06-17 04:01:00,75.0,68.4,30.07,South,188,2.2,5.0,80,0.00,CLR,,0.00,WeatherDisplay:10.37,2013-06-17 08:01:00,
2013-06-17 04:06:00,74.9,68.3,30.07,SSW,193,1.7,4.6,80,0.00,CLR,,0.00,WeatherDisplay:10.37,2013-06-17 08:06:00,
2013-06-17 04:11:00,74.9,68.7,30.07,SSE,150,2.9,3.5,81,0.00,CLR,,0.00,WeatherDisplay:10.37,2013-06-17 08:11:00,
2013-06-17 04:17:00,74.9,68.7,30.07,SSW,195,0.0,0.0,81,0.00,CLR,,0.00,WeatherDisplay:10.37,2013-06-17 08:17:00,
2013-06-17 04:22:00,74.8,68.2,30.07,South,175,1.0,3.5,80,0.00,CLR,,0.00,WeatherDisplay:10.37,2013-06-17 08:22:00,
2013-06-17 04:27:00,74.8,68.2,30.07,WSW,247,1.3,2.3,80,0.00,CLR,,0.00,WeatherDisplay:10.37,2013-06-17 08:27:00,
2013-06-17 04:32:00,74.8,68.2,30.07,WSW,253,1.1,3.5,80,0.00,CLR,,0.00,WeatherDisplay:10.37,2013-06-17 08:32:00,
2013-06-17 04:37:00,74.8,68.2,30.07,SSW,205,2.6,4.0,80,0.00,CLR,,0.00,WeatherDisplay:10.37,2013-06-17 08:37:00,
2013-06-17 04:42:00,74.7,68.1,30.07,SSW,208,2.0,3.5,80,0.00,CLR,,0.00,WeatherDisplay:10.37,2013-06-17 08:42:00,
2013-06-17 04:48:00,74.6,68.0,30.07,South,188,1.1,4.0,80,0.00,CLR,,0.00,WeatherDisplay:10.37,2013-06-17 08:48:00,
2013-06-17 04:53:00,74.4,67.8,30.07,SSW,213,0.7,4.0,80,0.00,CLR,,0.00,WeatherDisplay:10.37,2013-06-17 08:53:00,
2013-06-17 04:58:00,74.4,67.5,30.07,WNW,293,0.0,0.0,79,0.00,CLR,,0.00,WeatherDisplay:10.37,2013-06-17 08:58:00,
2013-06-17 05:03:00,74.4,67.5,30.07,SSW,199,1.1,11.5,79,0.00,CLR,,0.00,WeatherDisplay:10.37,2013-06-17 09:03:00,
2013-06-17 05:08:00,74.5,67.6,30.07,SW,218,0.0,3.5,79,0.00,CLR,,0.00,WeatherDisplay:10.37,2013-06-17 09:08:00,
2013-06-17 05:14:00,74.4,67.5,30.07,South,183,1.6,4.6,79,0.00,CLR,,0.00,WeatherDisplay:10.37,2013-06-17 09:14:00,
2013-06-17 05:19:00,74.4,67.8,30.07,South,181,0.7,2.3,80,0.00,CLR,,0.00,WeatherDisplay:10.37,2013-06-17 09:19:00,
2013-06-17 05:24:00,74.4,67.8,30.07,SSW,200,0.0,0.0,80,0.00,CLR,,0.00,WeatherDisplay:10.37,2013-06-17 09:24:00,
2013-06-17 05:29:00,74.4,67.5,30.07,SW,226,1.1,6.9,79,0.00,CLR,,0.00,WeatherDisplay:10.37,2013-06-17 09:29:00,
2013-06-17 05:34:00,74.4,67.8,30.07,SSW,200,1.7,6.0,80,0.00,CLR,,0.00,WeatherDisplay:10.37,2013-06-17 09:34:00,
2013-06-17 05:39:00,74.5,67.9,30.07,SSW,205,0.5,4.6,80,0.00,CLR,,0.00,WeatherDisplay:10.37,2013-06-17 09:39:00,
2013-06-17 05:44:00,74.5,67.6,30.07,SW,217,2.4,5.8,79,0.00,CLR,,0.00,WeatherDisplay:10.37,2013-06-17 09:44:00,
2013-06-17 05:49:00,74.6,68.0,30.07,South,190,1.0,3.5,80,0.00,CLR,,0.00,WeatherDisplay:10.37,2013-06-17 09:49:00,
2013-06-17 05:54:00,74.7,68.1,30.07,SW,228,0.1,2.3,80,0.00,CLR,,0.00,WeatherDisplay:10.37,2013-06-17 09:54:00,
2013-06-17 05:59:00,74.7,68.1,30.07,South,182,1.9,3.5,80,0.00,CLR,,0.00,WeatherDisplay:10.37,2013-06-17 09:59:00,
2013-06-17 06:05:00,74.7,68.1,30.07,South,191,1.0,7.0,80,0.00,CLR,,0.00,WeatherDisplay:10.37,2013-06-17 10:05:00,
2013-06-17 06:09:00,74.7,68.1,30.07,SW,225,1.0,3.5,80,0.00,CLR,,0.00,WeatherDisplay:10.37,2013-06-17 10:09:00,
2013-06-17 06:15:00,74.7,68.1,30.07,SSW,196,1.0,4.0,80,0.00,CLR,,0.00,WeatherDisplay:10.37,2013-06-17 10:15:00,
2013-06-17 06:20:00,74.7,68.5,30.07,South,187,1.0,4.0,81,0.00,CLR,,0.00,WeatherDisplay:10.37,2013-06-17 10:20:00,
2013-06-17 06:25:00,74.7,68.5,30.07,South,179,0.0,4.0,81,0.00,CLR,,0.00,WeatherDisplay:10.37,2013-06-17 10:25:00,
2013-06-17 06:30:00,74.6,68.7,30.07,South,184,0.0,6.0,82,0.00,CLR,,0.00,WeatherDisplay:10.37,2013-06-17 10:30:00,
2013-06-17 06:35:00,74.6,68.7,30.07,SSW,196,0.0,5.0,82,0.00,CLR,,0.00,WeatherDisplay:10.37,2013-06-17 10:35:00,
2013-06-17 06:40:00,74.6,68.7,30.07,SW,218,0.0,0.0,82,0.00,CLR,,0.00,WeatherDisplay:10.37,2013-06-17 10:40:00,
2013-06-17 06:45:00,74.5,69.0,30.07,SW,230,0.0,3.0,83,0.00,CLR,,0.00,WeatherDisplay:10.37,2013-06-17 10:45:00,
2013-06-17 06:50:00,74.5,68.6,30.07,SW,215,0.0,4.0,82,0.00,CLR,,0.00,WeatherDisplay:10.37,2013-06-17 10:50:00,
2013-06-17 06:55:00,74.6,69.1,30.07,SSW,195,0.0,4.0,83,0.00,CLR,,0.00,WeatherDisplay:10.37,2013-06-17 10:55:00,
2013-06-17 07:00:00,74.7,69.2,30.07,SSW,193,0.0,5.0,83,0.00,CLR,,0.00,WeatherDisplay:10.37,2013-06-17 11:00:00,
2013-06-17 07:05:00,74.8,68.9,30.07,South,178,1.0,4.0,82,0.00,CLR,,0.00,WeatherDisplay:10.37,2013-06-17 11:05:00,
2013-06-17 07:10:00,75.0,69.1,30.07,SE,136,1.0,3.0,82,0.00,CLR,,0.00,WeatherDisplay:10.37,2013-06-17 11:10:00,
2013-06-17 07:15:00,75.1,68.9,30.07,South,177,2.0,5.0,81,0.00,CLR,,0.00,WeatherDisplay:10.37,2013-06-17 11:15:00,
2013-06-17 07:20:00,75.3,69.1,30.07,SSW,200,2.0,5.0,81,0.00,CLR,,0.00,WeatherDisplay:10.37,2013-06-17 11:20:00,
2013-06-17 07:25:00,75.6,69.4,30.07,SW,221,2.6,3.5,81,0.00,CLR,,0.00,WeatherDisplay:10.37,2013-06-17 11:25:00,
2013-06-17 07:30:00,75.8,69.2,30.07,SW,232,3.6,4.6,80,0.00,CLR,,0.00,WeatherDisplay:10.37,2013-06-17 11:30:00,
2013-06-17 07:35:00,76.1,69.5,30.07,SW,219,2.7,4.6,80,0.00,CLR,,0.00,WeatherDisplay:10.37,2013-06-17 11:35:00,
2013-06-17 07:40:00,76.4,69.8,30.07,SW,218,0.9,4.0,80,0.00,CLR,,0.00,WeatherDisplay:10.37,2013-06-17 11:40:00,
2013-06-17 07:45:00,76.6,70.0,30.07,South,182,1.8,3.5,80,0.00,CLR,,0.00,WeatherDisplay:10.37,2013-06-17 11:45:00,
2013-06-17 07:50:00,76.8,69.8,30.07,SE,138,4.5,10.4,79,0.00,CLR,,0.00,WeatherDisplay:10.37,2013-06-17 11:50:00,
2013-06-17 07:55:00,77.0,70.0,30.07,SSW,201,3.4,6.9,79,0.00,CLR,,0.00,WeatherDisplay:10.37,2013-06-17 11:55:00,
2013-06-17 08:00:00,77.2,69.8,30.07,SSW,196,3.8,4.6,78,0.00,CLR,,0.00,WeatherDisplay:10.37,2013-06-17 12:00:00,
2013-06-17 08:06:00,77.5,70.1,30.07,SSW,198,0.1,1.1,78,0.00,CLR,,0.00,WeatherDisplay:10.37,2013-06-17 12:06:00,
2013-06-17 08:11:00,77.6,70.2,30.07,SW,234,1.1,3.5,78,0.00,CLR,,0.00,WeatherDisplay:10.37,2013-06-17 12:11:00,
2013-06-17 08:16:00,77.9,70.1,30.07,SSE,167,0.1,1.1,77,0.00,CLR,,0.00,WeatherDisplay:10.37,2013-06-17 12:16:00,
2013-06-17 08:21:00,78.1,70.7,30.07,SSE,167,0.3,2.0,78,0.00,CLR,,0.00,WeatherDisplay:10.37,2013-06-17 12:21:00,
2013-06-17 08:26:00,78.3,70.9,30.07,SSE,168,0.6,2.0,78,0.00,CLR,,0.00,WeatherDisplay:10.37,2013-06-17 12:26:00,
2013-06-17 08:31:00,78.4,71.0,30.07,SW,233,2.6,3.5,78,0.00,CLR,,0.00,WeatherDisplay:10.37,2013-06-17 12:31:00,
2013-06-17 08:36:00,78.3,70.5,30.07,SSW,197,0.9,2.3,77,0.00,CLR,,0.00,WeatherDisplay:10.37,2013-06-17 12:36:00,
2013-06-17 08:41:00,78.3,70.1,30.07,SW,220,2.0,3.5,76,0.00,CLR,,0.00,WeatherDisplay:10.37,2013-06-17 12:41:00,
2013-06-17 08:47:00,78.4,71.0,30.07,SW,217,0.6,4.0,78,0.00,CLR,,0.00,WeatherDisplay:10.37,2013-06-17 12:47:00,
2013-06-17 08:52:00,78.5,70.7,30.08,SSW,213,2.6,3.5,77,0.00,CLR,,0.00,WeatherDisplay:10.37,2013-06-17 12:52:00,
2013-06-17 08:57:00,78.7,70.9,30.07,SW,221,1.1,2.0,77,0.00,CLR,,0.00,WeatherDisplay:10.37,2013-06-17 12:57:00,
2013-06-17 09:02:00,78.7,70.5,30.08,SW,224,2.5,4.0,76,0.00,CLR,,0.00,WeatherDisplay:10.37,2013-06-17 13:02:00,
2013-06-17 09:07:00,78.8,70.6,30.07,WSW,243,2.3,3.5,76,0.00,CLR,,0.00,WeatherDisplay:10.37,2013-06-17 13:07:00,
2013-06-17 09:13:00,79.0,71.2,30.07,South,178,2.2,3.5,77,0.00,CLR,,0.00,WeatherDisplay:10.37,2013-06-17 13:13:00,
2013-06-17 09:18:00,79.1,71.3,30.07,SSW,208,2.5,5.0,77,0.00,CLR,,0.00,WeatherDisplay:10.37,2013-06-17 13:18:00,
2013-06-17 09:23:00,79.0,70.8,30.07,SSW,196,3.0,4.6,76,0.00,CLR,,0.00,WeatherDisplay:10.37,2013-06-17 13:23:00,
2013-06-17 09:28:00,79.0,71.2,30.07,South,186,2.4,5.0,77,0.00,CLR,,0.00,WeatherDisplay:10.37,2013-06-17 13:28:00,
2013-06-17 09:33:00,78.9,70.7,30.07,SW,223,3.3,13.8,76,0.00,CLR,,0.00,WeatherDisplay:10.37,2013-06-17 13:33:00,
2013-06-17 09:38:00,78.8,71.4,30.07,WSW,240,1.5,3.0,78,0.00,CLR,,0.00,WeatherDisplay:10.37,2013-06-17 13:38:00,
2013-06-17 09:44:00,78.8,71.4,30.07,SSE,148,1.2,3.5,78,0.00,CLR,,0.00,WeatherDisplay:10.37,2013-06-17 13:44:00,
2013-06-17 09:49:00,78.8,71.4,30.07,WSW,253,2.8,4.6,78,0.00,CLR,,0.00,WeatherDisplay:10.37,2013-06-17 13:49:00,
2013-06-17 09:54:00,78.9,71.5,30.07,SSW,194,2.0,5.8,78,0.00,CLR,,0.00,WeatherDisplay:10.37,2013-06-17 13:54:00,
2013-06-17 09:59:00,78.9,71.1,30.07,SW,229,2.0,4.6,77,0.00,CLR,,0.00,WeatherDisplay:10.37,2013-06-17 13:59:00,
2013-06-17 10:04:00,79.0,71.6,30.07,SSW,192,2.4,8.1,78,0.00,CLR,,0.00,WeatherDisplay:10.37,2013-06-17 14:04:00,
2013-06-17 10:09:00,79.1,71.6,30.07,SSW,196,1.3,3.5,78,0.00,CLR,,0.00,WeatherDisplay:10.37,2013-06-17 14:09:00,
2013-06-17 10:14:00,79.3,72.2,30.07,West,266,0.0,3.5,79,0.00,CLR,,0.00,WeatherDisplay:10.37,2013-06-17 14:14:00,
2013-06-17 10:19:00,79.7,71.8,30.07,SSW,193,1.4,4.0,77,0.00,CLR,,0.00,WeatherDisplay:10.37,2013-06-17 14:19:00,
2013-06-17 10:24:00,80.0,72.1,30.07,SSW,197,2.4,4.6,77,0.00,CLR,,0.00,WeatherDisplay:10.37,2013-06-17 14:24:00,
2013-06-17 10:30:00,80.6,73.1,30.07,SSW,206,5.0,9.0,78,0.00,CLR,,0.00,WeatherDisplay:10.37,2013-06-17 14:30:00,
2013-06-17 10:35:00,80.8,72.1,30.07,SW,234,2.9,7.0,75,0.00,CLR,,0.00,WeatherDisplay:10.37,2013-06-17 14:35:00,
2013-06-17 10:40:00,80.8,72.5,30.07,SSE,160,3.0,5.8,76,0.00,CLR,,0.00,WeatherDisplay:10.37,2013-06-17 14:40:00,
2013-06-17 10:45:00,81.0,72.3,30.06,SW,215,5.8,10.4,75,0.00,CLR,,0.00,WeatherDisplay:10.37,2013-06-17 14:45:00,
2013-06-17 10:50:00,80.6,72.3,30.06,SSW,199,5.5,6.9,76,0.00,CLR,,0.00,WeatherDisplay:10.37,2013-06-17 14:50:00,
2013-06-17 10:55:00,80.6,72.3,30.06,SSE,159,3.4,8.1,76,0.00,CLR,,0.00,WeatherDisplay:10.37,2013-06-17 14:55:00,
2013-06-17 11:00:00,81.2,72.1,30.06,SSW,196,5.3,10.4,74,0.00,CLR,,0.00,WeatherDisplay:10.37,2013-06-17 15:00:00,
2013-06-17 11:05:00,80.7,72.0,30.06,SW,226,8.4,11.5,75,0.00,CLR,,0.00,WeatherDisplay:10.37,2013-06-17 15:05:00,
2013-06-17 11:10:00,80.7,72.4,30.06,South,178,6.2,10.4,76,0.00,CLR,,0.00,WeatherDisplay:10.37,2013-06-17 15:10:00,
2013-06-17 11:16:00,80.3,72.0,30.06,SSW,195,5.7,11.5,76,0.00,CLR,,0.00,WeatherDisplay:10.37,2013-06-17 15:16:00,
2013-06-17 11:21:00,79.9,72.0,30.06,SSW,197,5.7,8.1,77,0.00,CLR,,0.00,WeatherDisplay:10.37,2013-06-17 15:21:00,
2013-06-17 11:26:00,79.7,72.2,30.06,SW,219,3.8,6.9,78,0.00,CLR,,0.00,WeatherDisplay:10.37,2013-06-17 15:26:00,
2013-06-17 11:31:00,79.8,72.7,30.06,SSE,166,2.8,6.9,79,0.00,CLR,,0.00,WeatherDisplay:10.37,2013-06-17 15:31:00,
2013-06-17 11:36:00,80.4,72.9,30.06,SSW,199,2.1,6.0,78,0.00,CLR,,0.00,WeatherDisplay:10.37,2013-06-17 15:36:00,
2013-06-17 11:41:00,80.9,73.0,30.06,SSW,205,5.1,10.4,77,0.00,CLR,,0.00,WeatherDisplay:10.37,2013-06-17 15:41:00,
2013-06-17 11:47:00,81.5,73.2,30.06,SSW,211,4.5,9.2,76,0.00,CLR,,0.00,WeatherDisplay:10.37,2013-06-17 15:47:00,
2013-06-17 11:52:00,81.9,73.2,30.06,SSW,202,5.8,9.2,75,0.00,CLR,,0.00,WeatherDisplay:10.37,2013-06-17 15:52:00,
2013-06-17 11:57:00,81.7,72.6,30.05,SSW,212,4.3,10.4,74,0.00,CLR,,0.00,WeatherDisplay:10.37,2013-06-17 15:57:00,
2013-06-17 12:02:00,81.4,72.7,30.06,SSW,211,6.0,12.7,75,0.00,CLR,,0.00,WeatherDisplay:10.37,2013-06-17 16:02:00,
2013-06-17 12:07:00,81.6,73.7,30.06,WSW,252,4.9,5.0,77,0.00,CLR,,0.00,WeatherDisplay:10.37,2013-06-17 16:07:00,
2013-06-17 12:12:00,81.9,74.0,30.06,SSW,207,8.8,8.8,77,0.00,CLR,,0.00,WeatherDisplay:10.37,2013-06-17 16:12:00,
2013-06-17 12:17:00,81.8,73.1,30.06,South,173,5.0,8.1,75,0.00,CLR,,0.00,WeatherDisplay:10.37,2013-06-17 16:17:00,
2013-06-17 12:22:00,81.9,73.2,30.05,SW,214,6.8,11.5,75,0.00,CLR,,0.00,WeatherDisplay:10.37,2013-06-17 16:22:00,
2013-06-17 12:28:00,82.0,72.9,30.05,SSW,201,4.6,10.4,74,0.00,CLR,,0.00,WeatherDisplay:10.37,2013-06-17 16:28:00,
2013-06-17 12:33:00,82.4,73.7,30.05,SSW,192,4.5,6.9,75,0.00,CLR,,0.00,WeatherDisplay:10.37,2013-06-17 16:33:00,
2013-06-17 12:38:00,82.6,73.5,30.05,South,177,4.4,12.7,74,0.00,CLR,,0.00,WeatherDisplay:10.37,2013-06-17 16:38:00,
2013-06-17 12:43:00,82.9,74.2,30.05,SSW,197,2.9,4.0,75,0.00,CLR,,0.00,WeatherDisplay:10.37,2013-06-17 16:43:00,
2013-06-17 12:48:00,82.9,74.2,30.05,South,189,3.4,9.2,75,0.00,CLR,,0.00,WeatherDisplay:10.37,2013-06-17 16:48:00,
2013-06-17 12:54:00,82.9,73.4,30.05,South,171,5.1,11.5,73,0.00,CLR,,0.00,WeatherDisplay:10.37,2013-06-17 16:54:00,
2013-06-17 12:59:00,82.7,73.6,30.05,SSW,208,3.7,7.0,74,0.00,CLR,,0.00,WeatherDisplay:10.37,2013-06-17 16:59:00,
2013-06-17 13:04:00,82.8,73.7,30.05,SSW,197,3.7,9.2,74,0.00,CLR,,0.00,WeatherDisplay:10.37,2013-06-17 17:04:00,
2013-06-17 13:09:00,82.5,73.0,30.05,South,185,7.3,11.5,73,0.00,CLR,,0.00,WeatherDisplay:10.37,2013-06-17 17:09:00,
2013-06-17 13:14:00,82.5,73.8,30.05,SW,218,6.4,6.4,75,0.00,CLR,,0.00,WeatherDisplay:10.37,2013-06-17 17:14:00,
2013-06-17 13:19:00,82.5,73.4,30.05,South,174,7.5,9.2,74,0.00,CLR,,0.00,WeatherDisplay:10.37,2013-06-17 17:19:00,
2013-06-17 13:24:00,82.7,74.8,30.05,South,188,2.7,4.6,77,0.00,CLR,,0.00,WeatherDisplay:10.37,2013-06-17 17:24:00,
2013-06-17 13:30:00,82.9,73.7,30.05,SSW,205,5.0,12.0,74,0.00,CLR,,0.00,WeatherDisplay:10.37,2013-06-17 17:30:00,
2013-06-17 13:35:00,82.8,74.0,30.05,South,186,5.0,14.0,75,0.00,CLR,,0.00,WeatherDisplay:10.37,2013-06-17 17:35:00,
2013-06-17 13:40:00,82.9,73.8,30.04,South,191,5.0,13.0,74,0.00,CLR,,0.00,WeatherDisplay:10.37,2013-06-17 17:40:00,
2013-06-17 13:45:00,83.0,73.9,30.05,SSW,199,6.0,13.0,74,0.00,CLR,,0.00,WeatherDisplay:10.37,2013-06-17 17:45:00,
2013-06-17 13:50:00,82.5,73.4,30.05,SSW,201,6.0,12.0,74,0.00,CLR,,0.00,WeatherDisplay:10.37,2013-06-17 17:50:00,
2013-06-17 13:55:00,81.6,72.5,30.05,South,178,4.1,13.8,74,0.00,CLR,,0.00,WeatherDisplay:10.37,2013-06-17 17:55:00,
2013-06-17 14:00:00,81.7,73.0,30.05,SW,219,8.2,17.3,75,0.00,CLR,,0.00,WeatherDisplay:10.37,2013-06-17 18:00:00,
2013-06-17 14:06:00,81.9,73.2,30.05,South,173,6.1,11.5,75,0.00,CLR,,0.00,WeatherDisplay:10.37,2013-06-17 18:06:00,
2013-06-17 14:11:00,82.1,73.4,30.04,SSW,200,6.7,10.4,75,0.00,CLR,,0.00,WeatherDisplay:10.37,2013-06-17 18:11:00,
2013-06-17 14:16:00,82.0,72.9,30.04,SSW,200,4.8,9.2,74,0.00,CLR,,0.00,WeatherDisplay:10.37,2013-06-17 18:16:00,
2013-06-17 14:21:00,82.1,73.4,30.04,South,182,5.1,9.2,75,0.00,CLR,,0.00,WeatherDisplay:10.37,2013-06-17 18:21:00,
2013-06-17 14:26:00,82.3,73.6,30.04,SW,229,4.4,8.1,75,0.00,CLR,,0.00,WeatherDisplay:10.37,2013-06-17 18:26:00,
2013-06-17 14:31:00,82.2,73.5,30.04,SSW,203,6.1,9.2,75,0.00,CLR,,0.00,WeatherDisplay:10.37,2013-06-17 18:31:00,
2013-06-17 14:36:00,82.4,73.7,30.04,SSW,202,5.7,8.1,75,0.00,CLR,,0.00,WeatherDisplay:10.37,2013-06-17 18:36:00,
2013-06-17 14:41:00,82.5,73.4,30.03,SW,215,9.5,11.5,74,0.00,CLR,,0.00,WeatherDisplay:10.37,2013-06-17 18:41:00,
2013-06-17 14:47:00,82.5,73.4,30.03,SSW,198,9.9,18.4,74,0.00,CLR,,0.00,WeatherDisplay:10.37,2013-06-17 18:47:00,
2013-06-17 14:52:00,81.9,72.8,30.03,South,188,8.8,16.1,74,0.00,CLR,,0.00,WeatherDisplay:10.37,2013-06-17 18:52:00,
2013-06-17 14:57:00,82.2,73.5,30.03,South,191,5.5,11.5,75,0.00,CLR,,0.00,WeatherDisplay:10.37,2013-06-17 18:57:00,
2013-06-17 15:02:00,82.2,73.1,30.03,SSW,209,8.1,13.8,74,0.00,CLR,,0.00,WeatherDisplay:10.37,2013-06-17 19:02:00,
2013-06-17 15:07:00,82.0,73.3,30.03,SW,218,6.1,13.8,75,0.00,CLR,,0.00,WeatherDisplay:10.37,2013-06-17 19:07:00,
2013-06-17 15:12:00,81.8,73.5,30.03,SSW,211,3.8,8.1,76,0.00,CLR,,0.00,WeatherDisplay:10.37,2013-06-17 19:12:00,
2013-06-17 15:17:00,81.7,73.0,30.03,SSE,161,8.5,11.5,75,0.00,CLR,,0.00,WeatherDisplay:10.37,2013-06-17 19:17:00,
2013-06-17 15:23:00,81.3,73.0,30.03,SSW,205,5.5,9.2,76,0.00,CLR,,0.00,WeatherDisplay:10.37,2013-06-17 19:23:00,
2013-06-17 15:28:00,81.5,73.6,30.03,South,172,4.8,11.5,77,0.00,CLR,,0.00,WeatherDisplay:10.37,2013-06-17 19:28:00,
2013-06-17 15:33:00,82.0,73.3,30.03,SSW,198,5.8,11.5,75,0.00,CLR,,0.00,WeatherDisplay:10.37,2013-06-17 19:33:00,
2013-06-17 15:38:00,82.2,73.1,30.02,SSW,213,8.5,16.1,74,0.00,CLR,,0.00,WeatherDisplay:10.37,2013-06-17 19:38:00,
2013-06-17 15:43:00,81.9,72.8,30.02,SSW,201,7.1,12.7,74,0.00,CLR,,0.00,WeatherDisplay:10.37,2013-06-17 19:43:00,
2013-06-17 15:48:00,81.4,72.7,30.02,South,182,6.1,10.4,75,0.00,CLR,,0.00,WeatherDisplay:10.37,2013-06-17 19:48:00,
2013-06-17 15:53:00,81.0,72.7,30.02,SSW,196,5.8,12.7,76,0.00,CLR,,0.00,WeatherDisplay:10.37,2013-06-17 19:53:00,
2013-06-17 15:58:00,81.0,72.7,30.02,South,172,8.5,18.4,76,0.00,CLR,,0.00,WeatherDisplay:10.37,2013-06-17 19:58:00,
2013-06-17 16:03:00,81.1,73.2,30.02,South,182,2.4,3.5,77,0.00,CLR,,0.00,WeatherDisplay:10.37,2013-06-17 20:03:00,
2013-06-17 16:09:00,81.5,73.2,30.02,SSW,213,7.1,15.0,76,0.00,CLR,,0.00,WeatherDisplay:10.37,2013-06-17 20:09:00,
2013-06-17 16:14:00,81.0,72.7,30.01,South,169,5.5,12.7,76,0.00,CLR,,0.00,WeatherDisplay:10.37,2013-06-17 20:14:00,
2013-06-17 16:19:00,80.7,72.8,30.01,SSE,167,4.3,8.1,77,0.00,CLR,,0.00,WeatherDisplay:10.37,2013-06-17 20:19:00,
2013-06-17 16:24:00,81.1,73.2,30.01,South,178,6.2,10.4,77,0.00,CLR,,0.00,WeatherDisplay:10.37,2013-06-17 20:24:00,
2013-06-17 16:29:00,80.9,72.6,30.01,South,187,6.7,11.5,76,0.00,CLR,,0.00,WeatherDisplay:10.37,2013-06-17 20:29:00,
2013-06-17 16:35:00,80.2,72.3,30.01,SSW,200,7.0,17.0,77,0.00,CLR,,0.00,WeatherDisplay:10.37,2013-06-17 20:35:00,
2013-06-17 16:40:00,79.8,72.3,30.01,South,191,6.0,14.0,78,0.00,CLR,,0.00,WeatherDisplay:10.37,2013-06-17 20:40:00,
2013-06-17 16:45:00,79.8,72.3,30.01,SSW,192,7.0,13.0,78,0.00,CLR,,0.00,WeatherDisplay:10.37,2013-06-17 20:45:00,
2013-06-17 16:50:00,79.7,72.2,30.01,SSW,199,8.0,15.0,78,0.00,CLR,,0.00,WeatherDisplay:10.37,2013-06-17 20:50:00,
2013-06-17 16:55:00,79.8,72.3,30.00,South,189,6.0,15.0,78,0.00,CLR,,0.00,WeatherDisplay:10.37,2013-06-17 20:55:00,
2013-06-17 17:00:00,80.0,72.5,30.00,South,183,6.0,13.0,78,0.00,CLR,,0.00,WeatherDisplay:10.37,2013-06-17 21:00:00,
2013-06-17 17:05:00,80.3,72.4,30.00,SSW,200,6.5,12.7,77,0.00,CLR,,0.00,WeatherDisplay:10.37,2013-06-17 21:05:00,
2013-06-17 17:10:00,80.5,72.6,30.00,SSW,196,8.0,15.0,77,0.00,CLR,,0.00,WeatherDisplay:10.37,2013-06-17 21:10:00,
2013-06-17 17:15:00,80.4,72.2,30.00,South,190,6.0,21.0,76,0.00,CLR,,0.00,WeatherDisplay:10.37,2013-06-17 21:15:00,
2013-06-17 17:20:00,80.4,72.5,30.00,South,173,3.5,8.1,77,0.00,CLR,,0.00,WeatherDisplay:10.37,2013-06-17 21:20:00,
2013-06-17 17:25:00,80.5,72.2,30.00,South,191,8.0,12.0,76,0.00,CLR,,0.00,WeatherDisplay:10.37,2013-06-17 21:25:00,
2013-06-17 17:30:00,80.3,72.1,30.00,SSW,193,7.0,13.0,76,0.00,CLR,,0.00,WeatherDisplay:10.37,2013-06-17 21:30:00,
2013-06-17 17:35:00,80.3,72.1,30.00,South,189,8.0,14.0,76,0.00,CLR,,0.00,WeatherDisplay:10.37,2013-06-17 21:35:00,
2013-06-17 17:40:00,80.1,71.5,30.00,SSW,192,9.0,16.0,75,0.00,CLR,,0.00,WeatherDisplay:10.37,2013-06-17 21:40:00,
2013-06-17 17:45:00,80.1,71.8,30.00,SSW,193,8.0,14.0,76,0.00,CLR,,0.00,WeatherDisplay:10.37,2013-06-17 21:45:00,
2013-06-17 17:50:00,80.0,72.1,30.00,SSW,194,5.0,12.0,77,0.00,CLR,,0.00,WeatherDisplay:10.37,2013-06-17 21:50:00,
2013-06-17 17:55:00,80.0,71.8,30.00,SSW,197,5.0,14.0,76,0.00,CLR,,0.00,WeatherDisplay:10.37,2013-06-17 21:55:00,
2013-06-17 18:00:00,79.7,70.7,30.00,South,186,8.0,18.0,74,0.00,CLR,,0.00,WeatherDisplay:10.37,2013-06-17 22:00:00,
2013-06-17 18:05:00,79.5,71.3,30.00,South,191,6.0,12.0,76,0.00,CLR,,0.00,WeatherDisplay:10.37,2013-06-17 22:05:00,
2013-06-17 18:10:00,79.3,71.1,30.00,SSW,207,6.0,10.0,76,0.00,CLR,,0.00,WeatherDisplay:10.37,2013-06-17 22:10:00,
2013-06-17 18:15:00,79.1,71.3,30.00,South,180,8.4,15.0,77,0.00,CLR,,0.00,WeatherDisplay:10.37,2013-06-17 22:15:00,
2013-06-17 18:20:00,78.8,71.0,30.00,South,185,2.8,5.8,77,0.00,CLR,,0.00,WeatherDisplay:10.37,2013-06-17 22:20:00,
2013-06-17 18:25:00,78.7,70.9,30.00,South,189,3.0,6.0,77,0.00,CLR,,0.00,WeatherDisplay:10.37,2013-06-17 22:25:00,
2013-06-17 18:31:00,78.7,70.9,30.00,SSW,192,8.4,16.1,77,0.00,CLR,,0.00,WeatherDisplay:10.37,2013-06-17 22:31:00,
2013-06-17 18:36:00,78.9,71.1,30.00,SSW,198,5.9,8.1,77,0.00,CLR,,0.00,WeatherDisplay:10.37,2013-06-17 22:36:00,
2013-06-17 18:41:00,78.8,71.0,30.00,South,190,5.3,8.1,77,0.00,CLR,,0.00,WeatherDisplay:10.37,2013-06-17 22:41:00,
2013-06-17 18:46:00,78.7,71.3,30.00,SW,216,6.7,11.5,78,0.00,CLR,,0.00,WeatherDisplay:10.37,2013-06-17 22:46:00,
2013-06-17 18:51:00,78.5,71.4,30.00,SW,223,4.9,12.7,79,0.00,CLR,,0.00,WeatherDisplay:10.37,2013-06-17 22:51:00,
2013-06-17 18:56:00,78.4,71.7,30.00,SSW,200,5.3,12.7,80,0.00,CLR,,0.00,WeatherDisplay:10.37,2013-06-17 22:56:00,
2013-06-17 19:01:00,78.3,71.6,30.00,South,181,6.8,15.0,80,0.00,CLR,,0.00,WeatherDisplay:10.37,2013-06-17 23:01:00,
2013-06-17 19:07:00,78.3,71.6,30.00,South,179,5.8,8.1,80,0.00,CLR,,0.00,WeatherDisplay:10.37,2013-06-17 23:07:00,
2013-06-17 19:12:00,78.3,72.0,30.00,South,187,6.9,8.1,81,0.00,CLR,,0.00,WeatherDisplay:10.37,2013-06-17 23:12:00,
2013-06-17 19:17:00,78.2,71.9,30.00,SSW,198,5.1,9.2,81,0.00,CLR,,0.00,WeatherDisplay:10.37,2013-06-17 23:17:00,
2013-06-17 19:22:00,78.2,72.3,30.00,SSW,207,4.9,9.2,82,0.00,CLR,,0.00,WeatherDisplay:10.37,2013-06-17 23:22:00,
2013-06-17 19:27:00,78.2,72.3,30.00,SSW,209,5.5,11.5,82,0.00,CLR,,0.00,WeatherDisplay:10.37,2013-06-17 23:27:00,
2013-06-17 19:32:00,78.2,72.3,30.00,SSW,192,6.7,10.0,82,0.00,CLR,,0.00,WeatherDisplay:10.37,2013-06-17 23:32:00,
2013-06-17 19:37:00,78.2,72.3,30.00,South,188,3.7,10.4,82,0.00,CLR,,0.00,WeatherDisplay:10.37,2013-06-17 23:37:00,
2013-06-17 19:43:00,78.2,72.6,30.00,South,186,4.5,9.2,83,0.00,CLR,,0.00,WeatherDisplay:10.37,2013-06-17 23:43:00,
2013-06-17 19:48:00,78.1,72.5,30.00,South,180,4.0,8.1,83,0.00,CLR,,0.00,WeatherDisplay:10.37,2013-06-17 23:48:00,
2013-06-17 19:53:00,78.0,72.4,30.00,SSW,207,5.5,8.1,83,0.00,CLR,,0.00,WeatherDisplay:10.37,2013-06-17 23:53:00,
2013-06-17 19:58:00,77.9,72.3,30.00,South,188,4.1,6.9,83,0.00,CLR,,0.00,WeatherDisplay:10.37,2013-06-17 23:58:00,
2013-06-17 20:03:00,77.9,72.3,30.00,South,178,4.2,6.0,83,0.00,CLR,,0.00,WeatherDisplay:10.37,2013-06-18 00:03:00,
2013-06-17 20:08:00,77.8,72.2,30.00,SSW,202,5.8,11.5,83,0.00,CLR,,0.00,WeatherDisplay:10.37,2013-06-18 00:08:00,
2013-06-17 20:13:00,77.8,72.2,30.00,SW,221,4.9,10.4,83,0.00,CLR,,0.00,WeatherDisplay:10.37,2013-06-18 00:13:00,
2013-06-17 20:18:00,77.8,72.2,30.00,SSW,192,4.6,9.0,83,0.00,CLR,,0.00,WeatherDisplay:10.37,2013-06-18 00:18:00,
2013-06-17 20:23:00,77.7,72.1,30.00,South,181,2.1,6.9,83,0.00,CLR,,0.00,WeatherDisplay:10.37,2013-06-18 00:23:00,
2013-06-17 20:28:00,77.7,72.1,30.00,South,184,5.5,10.0,83,0.00,CLR,,0.00,WeatherDisplay:10.37,2013-06-18 00:28:00,
2013-06-17 20:33:00,77.6,72.4,30.00,SSW,202,3.7,6.9,84,0.00,CLR,,0.00,WeatherDisplay:10.37,2013-06-18 00:33:00,
2013-06-17 20:38:00,77.5,72.3,30.00,SW,221,6.7,11.5,84,0.00,CLR,,0.00,WeatherDisplay:10.37,2013-06-18 00:38:00,
2013-06-17 20:44:00,77.5,72.3,30.01,South,182,5.6,10.4,84,0.00,CLR,,0.00,WeatherDisplay:10.37,2013-06-18 00:44:00,
2013-06-17 20:49:00,77.5,72.3,30.01,SSW,192,3.7,4.6,84,0.00,CLR,,0.00,WeatherDisplay:10.37,2013-06-18 00:49:00,
2013-06-17 20:54:00,77.5,72.6,30.01,SSW,203,2.6,6.0,85,0.00,CLR,,0.00,WeatherDisplay:10.37,2013-06-18 00:54:00,
2013-06-17 20:59:00,77.5,72.6,30.01,SSW,202,3.0,10.4,85,0.00,CLR,,0.00,WeatherDisplay:10.37,2013-06-18 00:59:00,
2013-06-17 21:04:00,77.5,72.6,30.02,SW,214,4.6,6.9,85,0.00,CLR,,0.00,WeatherDisplay:10.37,2013-06-18 01:04:00,
2013-06-17 21:09:00,77.4,72.5,30.02,SSE,167,3.6,6.9,85,0.00,CLR,,0.00,WeatherDisplay:10.37,2013-06-18 01:09:00,
2013-06-17 21:15:00,77.3,72.1,30.02,South,182,5.0,9.0,84,0.00,CLR,,0.00,WeatherDisplay:10.37,2013-06-18 01:15:00,
2013-06-17 21:20:00,77.3,72.1,30.02,SSW,194,6.0,12.0,84,0.00,CLR,,0.00,WeatherDisplay:10.37,2013-06-18 01:20:00,
2013-06-17 21:25:00,77.3,72.1,30.02,SSW,202,5.0,10.0,84,0.00,CLR,,0.00,WeatherDisplay:10.37,2013-06-18 01:25:00,
2013-06-17 21:30:00,77.3,72.1,30.02,SSW,193,5.0,8.0,84,0.00,CLR,,0.00,WeatherDisplay:10.37,2013-06-18 01:30:00,
2013-06-17 21:35:00,77.3,72.1,30.02,SSW,194,6.0,12.0,84,0.00,CLR,,0.00,WeatherDisplay:10.37,2013-06-18 01:35:00,
2013-06-17 21:40:00,77.3,72.1,30.03,South,188,5.0,9.0,84,0.00,CLR,,0.00,WeatherDisplay:10.37,2013-06-18 01:40:00,
2013-06-17 21:45:00,77.4,72.2,30.03,SSW,192,5.0,10.0,84,0.00,CLR,,0.00,WeatherDisplay:10.37,2013-06-18 01:45:00,
2013-06-17 21:50:00,77.4,72.2,30.03,South,189,6.0,14.0,84,0.00,CLR,,0.00,WeatherDisplay:10.37,2013-06-18 01:50:00,
2013-06-17 21:55:00,77.5,72.7,30.03,SSW,198,6.0,13.0,85,0.00,CLR,,0.00,WeatherDisplay:10.37,2013-06-18 01:55:00,
2013-06-17 22:00:00,77.6,72.4,30.03,SSW,205,5.0,12.0,84,0.00,CLR,,0.00,WeatherDisplay:10.37,2013-06-18 02:00:00,
2013-06-17 22:05:00,77.6,72.4,30.03,SSW,196,3.0,9.0,84,0.00,CLR,,0.00,WeatherDisplay:10.37,2013-06-18 02:05:00,
2013-06-17 22:10:00,77.6,72.7,30.03,South,185,5.0,9.0,85,0.00,,,0.00,WeatherDisplay:10.37,2013-06-18 02:10:00,
2013-06-17 22:15:00,77.6,72.7,30.03,South,189,6.0,12.0,85,0.00,,,0.00,WeatherDisplay:10.37,2013-06-18 02:15:00,
2013-06-17 22:20:00,77.5,72.7,30.03,SSW,203,5.0,12.0,85,0.00,,,0.00,WeatherDisplay:10.37,2013-06-18 02:20:00,
2013-06-17 22:25:00,77.5,72.3,30.03,SSW,213,3.6,5.8,84,0.00,CLR,,0.00,WeatherDisplay:10.37,2013-06-18 02:25:00,
2013-06-17 22:30:00,77.5,72.6,30.03,SSW,197,6.0,12.0,85,0.00,,,0.00,WeatherDisplay:10.37,2013-06-18 02:30:00,
2013-06-17 22:34:00,77.5,72.3,30.03,SSW,194,7.0,12.0,84,0.00,CLR,,0.00,WeatherDisplay:10.37,2013-06-18 02:34:00,
2013-06-17 22:40:00,77.4,72.2,30.03,SSW,195,3.0,15.0,84,0.00,CLR,,0.00,WeatherDisplay:10.37,2013-06-18 02:40:00,
2013-06-17 22:45:00,77.4,72.2,30.03,SSW,199,5.0,16.0,84,0.00,CLR,,0.00,WeatherDisplay:10.37,2013-06-18 02:45:00,
2013-06-17 22:50:00,77.3,72.4,30.03,SSW,198,3.0,12.0,85,0.00,,,0.00,WeatherDisplay:10.37,2013-06-18 02:50:00,
2013-06-17 22:55:00,77.3,72.4,30.03,SSW,199,6.0,10.0,85,0.00,,,0.00,WeatherDisplay:10.37,2013-06-18 02:55:00,
2013-06-17 23:00:00,77.2,72.3,30.03,SSW,197,5.0,8.0,85,0.00,,,0.00,WeatherDisplay:10.37,2013-06-18 03:00:00,
2013-06-17 23:05:00,77.2,72.3,30.02,SSW,195,6.0,13.0,85,0.00,,,0.00,WeatherDisplay:10.37,2013-06-18 03:05:00,
2013-06-17 23:10:00,77.1,72.2,30.02,SSW,206,6.0,12.0,85,0.00,,,0.00,WeatherDisplay:10.37,2013-06-18 03:10:00,
2013-06-17 23:15:00,77.1,72.6,30.02,SSW,201,5.0,13.0,86,0.00,,,0.00,WeatherDisplay:10.37,2013-06-18 03:15:00,
2013-06-17 23:20:00,77.1,72.6,30.02,SSW,195,5.0,12.0,86,0.00,,,0.00,WeatherDisplay:10.37,2013-06-18 03:20:00,
2013-06-17 23:25:00,77.1,72.6,30.01,SSE,163,4.6,6.9,86,0.00,CLR,,0.00,WeatherDisplay:10.37,2013-06-18 03:25:00,
2013-06-17 23:30:00,77.0,72.1,30.01,SSW,192,4.2,6.9,85,0.00,CLR,,0.00,WeatherDisplay:10.37,2013-06-18 03:30:00,
2013-06-17 23:35:00,77.0,72.5,30.01,SSW,200,5.3,11.5,86,0.00,CLR,,0.00,WeatherDisplay:10.37,2013-06-18 03:35:00,
2013-06-17 23:40:00,77.0,72.5,30.01,SSW,196,2.9,6.9,86,0.00,CLR,,0.00,WeatherDisplay:10.37,2013-06-18 03:40:00,
2013-06-17 23:45:00,77.0,72.1,30.01,SW,223,3.2,5.8,85,0.00,CLR,,0.00,WeatherDisplay:10.37,2013-06-18 03:45:00,
2013-06-17 23:50:00,77.0,72.1,30.01,South,170,5.5,11.5,85,0.00,CLR,,0.00,WeatherDisplay:10.37,2013-06-18 03:50:00,
2013-06-17 23:55:00,77.1,72.2,30.01,South,188,3.4,8.1,85,0.00,CLR,,0.00,WeatherDisplay:10.37,2013-06-18 03:55:00,